Weather History for Mombasa, Kenya

Change the Weather History Date:

Sunday, August 5, 2012

  Actual Average Record
Temperature  
Mean Temperature 78 °F -  
Max Temperature 86 °F 84 °F 86 °F (2012)
Min Temperature 69 °F 67 °F 66 °F (2003)
Cooling Degree Days 12    
Growing Degree Days 28 (Base 50)    
Moisture  
Dew Point 67 °F    
Average Humidity 70    
Maximum Humidity 94    
Minimum Humidity 43    
Precipitation  
Precipitation 0.00 in 0.09 in - ()
Sea Level Pressure  
Sea Level Pressure 30.00 in    
Wind  
Wind Speed 7 mph ()    
Max Wind Speed 14 mph    
Max Gust Speed -    
Visibility 7.9 miles    
Events      
Averages and records for this station are not official NWS values.
T = Trace of Precipitation, MM = Missing Value Source: Averaged Metar Reports

Daily Weather History Graph

Daily Weather History Graph

Search for Another Location

Airport:

Trip Planner

Search our weather history database for the weather conditions in past years. The results will help you decide how hot, cold, wet, or windy it might be!

Date:

Astronomy

Aug. 05, 2012 Rise Set
Actual Time 6:28 AM EAT 6:26 PM EAT
Civil Twilight 6:07 AM EAT 6:47 PM EAT
Nautical Twilight 5:42 AM EAT 7:12 PM EAT
Astronomical Twilight 5:17 AM EAT 7:37 PM EAT
Moon 9:11 PM EAT (8/5) 8:46 AM EAT (8/5)
Length of Visible Light 12h 40m
Length of Day
11h 57m
Waning Gibbous, 88% of the Moon is Illuminated
Aug 5
Waning Gibbous
Aug 9
Last Quarter
Aug 17
New
Aug 24
First Quarter
Aug 31
Full

Hourly Weather History & Observations

Time (EAT) Temp. Heat Index Dew Point Humidity Pressure Visibility Wind Dir Wind Speed Gust Speed Precip Events Conditions
12:00 AM 75.2 °F - 69.8 °F 83% 30.01 in 6.2 mi SSW 8.1 mph - N/A   Scattered Clouds
3:00 AM 72 °F - 69 °F 85% 29.96 in 19 mi SW 5.8 mph - -   Scattered Clouds
3:00 AM 71.6 °F - 68.0 °F 88% 29.95 in 6.2 mi SW 5.8 mph - N/A   Partly Cloudy
5:00 AM 71.6 °F - 68.0 °F 88% 29.98 in 6.2 mi SW 6.9 mph - N/A   Partly Cloudy
6:00 AM 71.6 °F - 68.0 °F 88% 29.98 in 6.2 mi SW 6.9 mph - N/A   Partly Cloudy
7:00 AM 69.8 °F - 68.0 °F 94% 30.01 in 6.2 mi WSW 5.8 mph - N/A   Scattered Clouds
8:00 AM 73.4 °F - 68.0 °F 83% 30.01 in 6.2 mi SW 8.1 mph - N/A   Partly Cloudy
9:00 AM 77.0 °F - 68.0 °F 74% 30.04 in 6.2 mi South 9.2 mph - N/A   Partly Cloudy
10:00 AM 80.6 °F 82.7 °F 66.2 °F 61% 30.04 in 6.2 mi SSW 12.7 mph - N/A   Scattered Clouds
11:00 AM 82.4 °F 84.6 °F 66.2 °F 58% 30.04 in 6.2 mi South 6.9 mph - N/A   Mostly Cloudy
12:00 PM 84.2 °F 85.6 °F 64.4 °F 51% 30.04 in 6.2 mi SSE 9.2 mph - N/A   Mostly Cloudy
1:00 PM 86.0 °F 86.6 °F 62.6 °F 45% 30.01 in 6.2 mi SSE 9.2 mph - N/A   Partly Cloudy
2:00 PM 84.2 °F 85.0 °F 62.6 °F 48% 29.98 in 6.2 mi SSE 11.5 mph - N/A   Partly Cloudy
3:00 PM 85 °F - 66 °F 43% 29.97 in 19 mi South 13.8 mph - -   Scattered Clouds
3:00 PM 84.2 °F 86.6 °F 66.2 °F 55% 29.98 in 6.2 mi SSE 13.8 mph - N/A   Partly Cloudy
4:00 PM 82.4 °F 85.4 °F 68.0 °F 62% 29.95 in 6.2 mi SSE 9.2 mph - N/A   Partly Cloudy
5:00 PM 80.6 °F 83.2 °F 68.0 °F 65% 29.98 in 6.2 mi South 8.1 mph - N/A   Partly Cloudy
7:00 PM 77.0 °F - 68.0 °F 74% 29.98 in 6.2 mi SSE 5.8 mph - N/A   Partly Cloudy
8:00 PM 77.0 °F - 66.2 °F 69% 29.98 in 6.2 mi SSE 8.1 mph - N/A   Partly Cloudy
9:00 PM 76 °F - 68 °F 70% 30.00 in 19 mi South 9.2 mph - -   Scattered Clouds
9:00 PM 75.2 °F - 68.0 °F 78% 30.01 in 6.2 mi South 9.2 mph - N/A   Partly Cloudy
10:00 PM 75.2 °F - 68.0 °F 78% 30.01 in 6.2 mi South 5.8 mph - N/A   Partly Cloudy
11:00 PM 75.2 °F - 68.0 °F 78% 30.01 in 6.2 mi South 8.1 mph - N/A   Partly Cloudy